Simultaneous Nadir Overpasses (SNOs) Predictions

Prediction of SNOs between AURA and NPP Satellite Orbit:

Table of predicted SNOs for the next 14.0 days since TLE Epoch: 6/28/2014
Index Date (AURA) Time (AURA) Lat,Lon (AURA) SZA (AURA ) Date (NPP) Time (NPP) Lat,Lon (NPP) SZA (NPP ) Distance(km) Time Diff (sec)
1 06/30/2014 22:46:37 75.81, 78.96 74.57 06/30/2014 22:45:25 75.81, 79.02 74.61 1.93 72
2 06/30/2014 23:35:46 -76.70,-110.51 106.49 06/30/2014 23:35:51 -76.71,-110.41 106.52 2.81 5
3 07/03/2014 15:03:06 75.85,-165.03 74.73 07/03/2014 15:02:22 75.85,-165.08 74.78 1.64 44
4 07/03/2014 15:52:15 -76.75, 5.54 106.33 07/03/2014 15:52:48 -76.75, 5.51 106.35 0.86 33
5 07/06/2014 07:19:26 76.33, -47.67 74.44 07/06/2014 07:19:09 76.34, -47.60 74.44 1.99 17
6 07/06/2014
